This demonstration page uses our WeatherBlox Daily Observations layout. Learn more.

Hourly Observations for June 3, 2018

Temp ( °F °C ) Dew Point ( °F °C ) Humidity (%) Winds ( mph kmh ) Pressure ( in mb ) Visibility ( mi km ) Precip ( " mm )
12:15 am 00:15 Clear 60 15.5 48 8.9 65 65 WNW 5 7 30.12 1020 10 16.09344 0 0
12:35 am 00:35 Clear 59 15 48 9 68 68 WNW 5 7 30.12 1020 10 16.09344 0 0
12:55 am 00:55 Clear 59 14.8 48 8.8 68 68 NW 5 7 30.12 1020 10 16.09344 0 0
1:15 am 01:15 Clear 56 13.3 48 9 75 75 N 3 6 30.15 1021 10 16.09344 0 0
1:35 am 01:35 Clear 55 12.6 48 9.1 79 79 Calm 30.15 1021 10 16.09344 0 0
1:55 am 01:55 Clear 55 12.7 48 9.1 79 79 Calm 30.15 1021 10 16.09344 0 0
2:15 am 02:15 Clear 54 12.2 49 9.3 83 83 Calm 30.15 1021 10 16.09344 0 0
2:35 am 02:35 Clear 53 11.7 48 9.1 84 84 NW 6 9 30.15 1021 10 16.09344 0 0
2:55 am 02:55 Clear 53 11.9 49 9.4 85 85 NW 3 6 30.15 1021 10 16.09344 0 0
3:15 am 03:15 Clear 53 11.7 49 9.4 86 86 NNW 5 7 30.18 1022 10 16.09344 0 0
3:35 am 03:35 Clear 53 11.5 49 9.5 88 88 NW 5 7 30.18 1022 10 16.09344 0 0
3:55 am 03:55 Clear 52 11.2 49 9.3 88 88 NW 3 6 30.18 1022 10 16.09344 0 0
4:15 am 04:15 Clear 52 11.3 49 9.5 89 89 Calm 30.18 1022 10 16.09344 0 0
4:35 am 04:35 Clear 52 11 48 9.1 88 88 Calm 30.18 1022 10 16.09344 0 0
4:55 am 04:55 Clear 52 11 48 8.8 86 86 NW 3 6 30.18 1022 10 16.09344 0 0
5:15 am 05:15 Clear 52 11.1 47 8.5 84 84 WNW 3 6 30.24 1024 10 16.09344 0 0
5:35 am 05:35 Clear 51 10.5 47 8.2 86 86 Calm 30.24 1024 10 16.09344 0 0
5:55 am 05:55 Clear 51 10.7 47 8.5 86 86 Calm 30.24 1024 10 16.09344 0 0
6:15 am 06:15 Sunny 50 10.2 46 8 86 86 NW 5 7 30.24 1024 10 16.09344 0 0
6:35 am 06:35 Sunny 51 10.8 47 8.5 86 86 WNW 5 7 30.24 1024 10 16.09344 0 0
6:55 am 06:55 Sunny 52 11 48 8.9 87 87 WNW 3 6 30.24 1024 10 16.09344 0 0
7:15 am 07:15 Sunny 54 12.2 49 9.3 83 83 Calm 30.21 1023 10 16.09344 0 0
7:35 am 07:35 Sunny 56 13.3 50 10.1 81 81 Calm 30.21 1023 10 16.09344 0 0
7:55 am 07:55 Sunny 58 14.3 52 11.1 81 81 Calm 30.21 1023 10 16.09344 0 0
8:15 am 08:15 Sunny 61 16 53 11.7 76 76 Calm 30.18 1022 10 16.09344 0 0
8:35 am 08:35 Sunny 64 17.5 56 13.1 76 76 Calm 30.18 1022 10 16.09344 0 0
8:55 am 08:55 Sunny 65 18.6 53 11.9 65 65 Calm 30.18 1022 10 16.09344 0 0
9:15 am 09:15 Sunny 68 19.9 54 12.2 61 61 Calm 30.18 1022 10 16.09344 0 0
9:35 am 09:35 Sunny 69 20.7 50 9.9 50 50 Calm 30.18 1022 10 16.09344 0 0
9:55 am 09:55 Sunny 70 21.3 48 9 45 45 Calm 30.18 1022 10 16.09344 0 0
10:15 am 10:15 Sunny 71 21.7 46 7.8 41 41 Calm 30.18 1022 10 16.09344 0 0
10:35 am 10:35 Sunny 72 22.2 47 8.4 41 41 NE 3 6 30.12 1020 10 16.09344 0 0
10:55 am 10:55 Sunny 72 22.2 46 7.9 40 40 ESE 3 6 30.15 1021 10 16.09344 0 0
11:15 am 11:15 Sunny 72 22.3 45 7.2 38 38 Calm 30.15 1021 10 16.09344 0 0
11:35 am 11:35 Sunny 73 22.7 45 7.4 37 37 Calm 30.15 1021 10 16.09344 0 0
11:55 am 11:55 Sunny 74 23.3 46 7.9 37 37 SSE 5 7 30.15 1021 10 16.09344 0 0
12:15 pm 12:15 Sunny 74 23.2 46 7.9 38 38 Calm 30.12 1020 10 16.09344 0 0
12:35 pm 12:35 Sunny 75 23.7 46 7.5 35 35 Calm 30.12 1020 10 16.09344 0 0
12:55 pm 12:55 Sunny 75 23.7 44 6.4 33 33 Calm 30.12 1020 10 16.09344 0 0
1:15 pm 13:15 Sunny 76 24.3 46 7.6 34 34 E 3 6 30.12 1020 10 16.09344 0 0
1:35 pm 13:35 Sunny 75 24.1 45 7.1 34 34 ENE 6 9 30.12 1020 10 16.09344 0 0
1:55 pm 13:55 Sunny 77 24.8 47 8.6 36 36 Calm 30.09 1019 10 16.09344 0 0
2:15 pm 14:15 Sunny 77 24.8 45 7.3 33 33 W 3 6 30.09 1019 10 16.09344 0 0
2:35 pm 14:35 Sunny 77 25.2 47 8.4 34 34 NE 5 7 30.06 1018 10 16.09344 0 0
2:55 pm 14:55 Sunny 78 25.5 46 7.9 33 33 NE 3 6 30.06 1018 10 16.09344 0 0
3:15 pm 15:15 Sunny 78 25.8 47 8.5 33 33 E 8 13 30.03 1017 10 16.09344 0 0
3:35 pm 15:35 Sunny 78 25.6 47 8.3 33 33 E 3 6 30.03 1017 10 16.09344 0 0
3:55 pm 15:55 Sunny 78 25.7 45 7.1 31 31 Calm 30 1016 10 16.09344 0 0
4:15 pm 16:15 Sunny 78 25.8 43 5.9 28 28 Calm 30 1016 10 16.09344 0 0
4:35 pm 16:35 Sunny 80 26.4 45 7 29 29 Calm 30 1016 10 16.09344 0 0
4:55 pm 16:55 Sunny 79 26.3 45 7 29 29 Calm 30 1016 10 16.09344 0 0
5:15 pm 17:15 Sunny 80 26.5 44 6.8 29 29 Calm 30 1016 10 16.09344 0 0
5:35 pm 17:35 Sunny 80 26.6 46 7.9 31 31 E 3 6 30 1016 10 16.09344 0 0
5:55 pm 17:55 Sunny 80 26.8 46 7.8 30 30 SSE 7 11 30 1016 10 16.09344 0 0
6:15 pm 18:15 Sunny 80 26.8 47 8.5 32 32 SSE 7 11 30 1016 10 16.09344 0 0
6:35 pm 18:35 Sunny 80 26.6 48 8.7 32 32 S 8 13 30 1016 10 16.09344 0 0
6:55 pm 18:55 Sunny 80 26.5 49 9.4 34 34 S 12 19 30 1016 10 16.09344 0 0
7:15 pm 19:15 Sunny 79 26 49 9.4 35 35 S 9 15 30 1016 10 16.09344 0 0
7:35 pm 19:35 Sunny 78 25.5 49 9.2 36 36 S 12 19 30 1016 10 16.09344 0 0
7:55 pm 19:55 Sunny 77 25 48 8.9 36 36 S 8 13 30 1016 10 16.09344 0 0
8:15 pm 20:15 Sunny 76 24.5 48 8.8 37 37 S 6 9 30 1016 10 16.09344 0 0
8:35 pm 20:35 Sunny 73 23 50 9.9 44 44 SSE 5 7 30.03 1017 10 16.09344 0 0
8:55 pm 20:55 Sunny 71 21.5 50 10.2 49 49 SSE 6 9 30.03 1017 10 16.09344 0 0
9:15 pm 21:15 Clear 67 19.2 53 11.5 61 61 SE 7 11 30.06 1018 10 16.09344 0 0
9:35 pm 21:35 Clear 67 19.5 52 11.2 59 59 SE 7 11 30.06 1018 10 16.09344 0 0
9:55 pm 21:55 Clear 66 18.8 53 11.4 62 62 SE 7 11 30.06 1018 10 16.09344 0 0
10:15 pm 22:15 Clear 66 18.7 52 11 61 61 SE 8 13 30.06 1018 10 16.09344 0 0
10:35 pm 22:35 Clear 64 17.7 52 11.1 65 65 ESE 8 13 30.06 1018 10 16.09344 0 0
10:55 pm 22:55 Clear 63 17.4 52 10.9 66 66 ESE 9 15 30.06 1018 10 16.09344 0 0
11:15 pm 23:15 Clear 63 17.1 51 10.7 66 66 ESE 8 13 30.09 1019 10 16.09344 0 0
11:35 pm 23:35 Clear 64 17.6 51 10.4 63 63 ESE 10 17 30.06 1018 10 16.09344 0 0
11:55 pm 23:55 Clear 64 17.9 50 10 60 60 ESE 9 15 30.03 1017 10 16.09344 0 0

Powered by AerisWeather